User: anonymous   Login
Location: Brno
(49.2000°N, 16.6330°E)
Time: 10:06:32
(UTC+01:00)
Language:

Cosmos 2227 - Orbit

View from above orbital plane
View from above orbital plane
View from above satellite
View from above satellite

Ground track
Ground track

The orbit data is extracted from the following two-line orbital elements,

1 22284U 92093A   17328.14416903  .00000273  00000-0  17073-3 0  9993
2 22284  70.9782 260.1525 0020134 288.8306  71.0632 14.13280412285245
Epoch (UTC): 24 November 2017 03:27:36
Eccentricity: 0.0020134
inclination: 70.9782°
perigee height: 833 km
apogee height: 863 km
right ascension of ascending node: 260.1525°
argument of perigee: 288.8306°
revolutions per day: 14.13280412
mean anomaly at epoch: 71.0632°
orbit number at epoch: 28524

The dashed part of the orbit path shows where the satellite is in the earth's shadow,  

DLR